Regional Weather Roundup
Issued by NWS

Home | Current Version | Previous Version | Text Only | Print | Product List | Glossary Off
Versions: 1 2 3 4 5 6 7 8 9 10 11 12 13 14 15 16 17 18 19 20 21 22 23 24 25 26 27 28 29 30 31 32 33 34 35 36 37 38 39 40 41 42 43 44 45 46 47 48 49 50

000
ASUS45 KSLC 280210
RWRUT

UTAH REGIONAL WEATHER ROUNDUP
NATIONAL WEATHER SERVICE SALT LAKE CITY UT
800 PM MDT FRI MAY 27 2016

UTZ001>011-023>025-280300-

NORTHERN UTAH

CITY           SKY/WX    TMP DP  RH WIND       PRES   REMARKS
BRIGHAM CITY     N/A     56  46  67 N14       29.94R
HILL AFB       PTCLDY    64  39  40 NW7       29.93R
LOGAN          CLOUDY    56  46  69 W17       29.95R
OGDEN          PTCLDY    63  40  42 NW8       29.91R
PROVO AIRPORT  PTCLDY    63  41  45 VRB6      29.92S
SALT LAKE CITY MOCLDY    68  39  34 N12       29.89R
VERNAL         CLOUDY    58  36  43 N10       29.94R
WENDOVER       MOCLDY    57  45  62 N17G26    29.91R THUNDER
HEBER CITY     CLEAR     57  37  47 N3        29.94R
WEST JORDAN    CLOUDY    64  37  36 SW7       29.92R

$$

UTZ012>022-026-027-280300-

SOUTHERN/CENTRAL UTAH

CITY           SKY/WX    TMP DP  RH WIND       PRES   REMARKS
BLANDING       MOCLDY    63  32  30 CALM      30.01R
BRYCE CANYON   MOCLDY    55  28  35 W16G22    30.05R
CEDAR CITY     PTCLDY    67  29  24 CALM      29.93S
DELTA          MOCLDY    64  37  36 NE5       29.92R
HANKSVILLE     CLOUDY    64  36  34 NE8       29.91R
MILFORD        PTCLDY    68  32  26 SW8       29.89S
MOAB/CYNLANDS  MOCLDY    71  32  23 W10       29.86R
PRICE          PTCLDY    64  25  22 N12       29.94R
ST GEORGE      CLEAR     82  30  15 W10       29.81R
KANAB          CLEAR     72  32  23 W5        29.95R

$$

REGIONAL REPORTS     COLORADO/ARIZONA

CITY           SKY/WX    TMP DP  RH WIND       PRES   REMARKS
CRAIG, CO      LGT RAIN  50  42  74 SE7       30.00R
GRAND JUNCTION MOCLDY    60  34  37 NE18G26   29.90R
RIFLE          CLOUDY    54  38  54 CALM      29.97R
MONTROSE       CLOUDY    60  31  33 SE5       29.97R
CORTEZ         PTCLDY    62  32  32 E13       29.94R
PAGE, AZ       PTCLDY    76  29  17 NW8       29.86R
GRAND CANYON   PTCLDY    64  26  23 CALM      30.02R
KINGMAN        PTCLDY    80  26  13 W9        29.85R
FLAGSTAFF      MOCLDY    63  27  25 SW6       30.05R

$$

REGIONAL REPORTS    NEVADA/IDAHO/WYOMING

CITY           SKY/WX    TMP DP  RH WIND       PRES   REMARKS
LAS VEGAS, NV  PTCLDY    88  25  10 SW5       29.70S
ELY            PTCLDY    63  26  24 NW8       29.95R
ELKO           CLOUDY    66  29  24 W7        29.92R
POCATELLO, ID  CLOUDY    62  37  39 SW18      29.92R
BURLEY         CLEAR     61  32  33 W12G21    29.91R
EVANSTON, WY   CLOUDY    51  33  50 W9        30.01R
ROCK SPRINGS   CLOUDY    55  33  43 W21       29.96R
KEMMERER         N/A     50  34  53 W10       30.01R

$$



USA.gov is the U.S. government's official web portal to all federal, state and local government web resources and services.